| time (UTC) | temp C | wind direction | speed KPH | gust KPH | rain 1hr cm | rain 24hr cm | rain mn cm | humidity % | barometer mb |
| 20260507223544 | 6 | 0 | 0.0 | 0.0 | 0.00 | 0.08 | 0.00 | 94 | 1018.5 |
| 20260507223201 | 6 | 0 | 0.0 | 0.0 | 0.00 | 0.08 | 0.00 | 94 | 1018.6 |
| 20260507222544 | 6 | 0 | 0.0 | 0.0 | 0.00 | 0.08 | 0.00 | 94 | 1018.4 |
| 20260507222045 | 6 | 0 | 0.0 | 0.0 | 0.00 | 0.08 | 0.00 | 94 | 1018.4 |
| 20260507221555 | 6 | 0 | 0.0 | 0.0 | 0.00 | 0.08 | 0.00 | 94 | 1018.4 |
| 20260507221046 | 6 | 0 | 0.0 | 0.0 | 0.00 | 0.08 | 0.00 | 94 | 1018.4 |
| 20260507220545 | 6 | 0 | 0.0 | 0.0 | 0.00 | 0.08 | 0.00 | 94 | 1018.3 |
| 20260507220056 | 7 | 0 | 0.0 | 0.0 | 0.00 | 0.08 | 0.00 | 94 | 1018.3 |
| 20260507215544 | 7 | 0 | 0.0 | 0.0 | 0.00 | 0.08 | 0.08 | 94 | 1018.4 |
| 20260507215046 | 7 | 0 | 0.0 | 0.0 | 0.00 | 0.08 | 0.08 | 94 | 1018.4 |
| 20260507214557 | 7 | 0 | 0.0 | 0.0 | 0.00 | 0.08 | 0.08 | 94 | 1018.3 |
| 20260507214045 | 7 | 0 | 0.0 | 0.0 | 0.00 | 0.08 | 0.08 | 93 | 1018.2 |
| 20260507213544 | 7 | 0 | 0.0 | 0.0 | 0.00 | 0.08 | 0.08 | 93 | 1018.2 |
| 20260507213121 | 7 | 0 | 0.0 | 0.0 | 0.00 | 0.08 | 0.08 | 93 | 1018.3 |
| 20260507212545 | 7 | 0 | 0.0 | 0.0 | 0.00 | 0.08 | 0.08 | 93 | 1018.3 |
| 20260507212043 | 7 | 0 | 0.0 | 0.0 | 0.00 | 0.08 | 0.08 | 93 | 1018.3 |
| 20260507211552 | 7 | 0 | 0.0 | 0.0 | 0.00 | 0.08 | 0.08 | 93 | 1018.3 |
| 20260507211043 | 7 | 0 | 0.0 | 4.8 | 0.00 | 0.08 | 0.08 | 93 | 1018.3 |
| 20260507210547 | 7 | 0 | 0.0 | 4.8 | 0.00 | 0.08 | 0.08 | 93 | 1018.4 |
| 20260507210055 | 7 | 0 | 0.0 | 4.8 | 0.00 | 0.08 | 0.08 | 93 | 1018.4 |
| 20260507205543 | 7 | 0 | 0.0 | 0.0 | 0.00 | 0.08 | 0.08 | 93 | 1018.3 |
| 20260507205049 | 7 | 0 | 0.0 | 0.0 | 0.00 | 0.08 | 0.08 | 92 | 1018.2 |
| 20260507204555 | 7 | 0 | 0.0 | 0.0 | 0.00 | 0.08 | 0.08 | 92 | 1018.2 |
| 20260507204045 | 7 | 0 | 0.0 | 0.0 | 0.00 | 0.08 | 0.08 | 92 | 1018.1 |
| 20260507203545 | 7 | 0 | 0.0 | 0.0 | 0.00 | 0.08 | 0.08 | 92 | 1018.1 |
| 20260507203051 | 7 | 0 | 0.0 | 0.0 | 0.00 | 0.08 | 0.08 | 92 | 1018.1 |
| 20260507202544 | 7 | 0 | 0.0 | 0.0 | 0.00 | 0.08 | 0.08 | 92 | 1018.0 |
| 20260507202048 | 7 | 0 | 0.0 | 0.0 | 0.00 | 0.08 | 0.08 | 92 | 1018.0 |
| 20260507201603 | 7 | 0 | 0.0 | 0.0 | 0.00 | 0.08 | 0.08 | 91 | 1017.8 |
| 20260507201044 | 8 | 0 | 0.0 | 0.0 | 0.00 | 0.08 | 0.08 | 91 | 1017.9 |
| 20260507200544 | 8 | 0 | 0.0 | 0.0 | 0.00 | 0.08 | 0.08 | 91 | 1017.8 |
| 20260507200109 | 8 | 0 | 0.0 | 0.0 | 0.00 | 0.08 | 0.08 | 91 | 1017.8 |
| 20260507195545 | 8 | 0 | 0.0 | 0.0 | 0.00 | 0.08 | 0.08 | 90 | 1017.8 |
| 20260507195045 | 8 | 0 | 0.0 | 0.0 | 0.00 | 0.08 | 0.08 | 90 | 1017.7 |
| 20260507194554 | 8 | 0 | 0.0 | 0.0 | 0.00 | 0.08 | 0.08 | 90 | 1017.8 |
| 20260507194047 | 8 | 0 | 0.0 | 0.0 | 0.00 | 0.08 | 0.08 | 90 | 1017.8 |
| 20260507193545 | 8 | 0 | 0.0 | 0.0 | 0.00 | 0.08 | 0.08 | 90 | 1017.8 |
| 20260507193053 | 8 | 0 | 0.0 | 0.0 | 0.00 | 0.08 | 0.08 | 89 | 1017.8 |
| 20260507192545 | 8 | 0 | 0.0 | 0.0 | 0.00 | 0.08 | 0.08 | 89 | 1017.7 |
| 20260507192044 | 9 | 0 | 0.0 | 0.0 | 0.00 | 0.08 | 0.08 | 88 | 1017.7 |
| 20260507191553 | 9 | 0 | 0.0 | 0.0 | 0.00 | 0.08 | 0.08 | 88 | 1017.6 |
| 20260507191045 | 9 | 0 | 0.0 | 0.0 | 0.00 | 0.08 | 0.08 | 88 | 1017.6 |
| 20260507190544 | 9 | 0 | 0.0 | 0.0 | 0.00 | 0.08 | 0.08 | 87 | 1017.6 |
| 20260507190054 | 9 | 0 | 0.0 | 3.2 | 0.00 | 0.08 | 0.08 | 87 | 1017.6 |
| 20260507185545 | 10 | 0 | 0.0 | 3.2 | 0.00 | 0.10 | 0.08 | 87 | 1017.6 |
| 20260507185045 | 10 | 0 | 0.0 | 3.2 | 0.00 | 0.10 | 0.08 | 86 | 1017.7 |
| 20260507184555 | 10 | 0 | 0.0 | 6.4 | 0.00 | 0.10 | 0.08 | 85 | 1017.7 |
| 20260507184044 | 10 | 0 | 0.0 | 8.0 | 0.00 | 0.10 | 0.08 | 85 | 1017.6 |
| 20260507183550 | 10 | 0 | 0.0 | 8.0 | 0.00 | 0.10 | 0.08 | 84 | 1017.6 |
| 20260507183056 | 10 | 0 | 0.0 | 6.4 | 0.00 | 0.10 | 0.08 | 84 | 1017.5 |
| 20260507182543 | 10 | 0 | 0.0 | 8.0 | 0.00 | 0.10 | 0.08 | 83 | 1017.4 |
| 20260507182045 | 10 | 51 | 0.0 | 8.0 | 0.00 | 0.10 | 0.08 | 83 | 1017.4 |
| 20260507181559 | 10 | 24 | 0.0 | 14.5 | 0.00 | 0.10 | 0.08 | 82 | 1017.4 |
| 20260507181047 | 10 | 0 | 0.0 | 14.5 | 0.00 | 0.10 | 0.08 | 81 | 1017.3 |
| 20260507180546 | 11 | 0 | 1.6 | 11.3 | 0.00 | 0.10 | 0.08 | 80 | 1017.2 |
| 20260507180054 | 11 | 0 | 0.0 | 11.3 | 0.00 | 0.10 | 0.08 | 80 | 1017.4 |
| 20260507175545 | 11 | 0 | 1.6 | 9.7 | 0.00 | 0.10 | 0.08 | 80 | 1017.2 |
| 20260507175045 | 11 | 0 | 0.0 | 6.4 | 0.00 | 0.10 | 0.08 | 80 | 1017.2 |
| 20260507174558 | 11 | 0 | 0.0 | 8.0 | 0.00 | 0.10 | 0.08 | 79 | 1017.2 |
| 20260507174044 | 11 | 0 | 0.0 | 8.0 | 0.00 | 0.10 | 0.08 | 78 | 1017.2 |
| 20260507173543 | 11 | 0 | 1.6 | 9.7 | 0.00 | 0.10 | 0.08 | 78 | 1017.1 |
| 20260507173058 | 11 | 0 | 0.0 | 9.7 | 0.00 | 0.10 | 0.08 | 78 | 1017.2 |
| 20260507172548 | 11 | 0 | 1.6 | 9.7 | 0.00 | 0.10 | 0.08 | 79 | 1017.1 |
| 20260507172044 | 11 | 0 | 0.0 | 9.7 | 0.00 | 0.10 | 0.08 | 79 | 1017.0 |
| 20260507171559 | 11 | 0 | 0.0 | 9.7 | 0.00 | 0.10 | 0.08 | 79 | 1017.1 |
| 20260507171045 | 11 | 0 | 1.6 | 9.7 | 0.00 | 0.10 | 0.08 | 78 | 1016.9 |
| 20260507170547 | 12 | 40 | 0.0 | 9.7 | 0.00 | 0.10 | 0.08 | 79 | 1016.9 |
| 20260507170053 | 11 | 0 | 0.0 | 17.7 | 0.00 | 0.10 | 0.08 | 79 | 1017.0 |
| 20260507165543 | 11 | 0 | 0.0 | 17.7 | 0.00 | 0.13 | 0.08 | 78 | 1016.8 |
| 20260507165044 | 12 | 0 | 1.6 | 16.1 | 0.00 | 0.13 | 0.08 | 77 | 1016.8 |
| 20260507164551 | 12 | 0 | 0.0 | 16.1 | 0.00 | 0.13 | 0.08 | 76 | 1016.8 |
| 20260507164045 | 12 | 28 | 3.2 | 12.9 | 0.00 | 0.13 | 0.08 | 75 | 1016.7 |
| 20260507163544 | 12 | 43 | 1.6 | 12.9 | 0.00 | 0.13 | 0.08 | 75 | 1016.8 |
| 20260507163051 | 12 | 39 | 1.6 | 11.3 | 0.00 | 0.13 | 0.08 | 74 | 1016.8 |
| 20260507162545 | 12 | 0 | 0.0 | 6.4 | 0.00 | 0.13 | 0.08 | 74 | 1016.7 |
| 20260507162047 | 12 | 0 | 0.0 | 9.7 | 0.00 | 0.13 | 0.08 | 73 | 1016.9 |
| 20260507161608 | 12 | 0 | 0.0 | 9.7 | 0.00 | 0.13 | 0.08 | 72 | 1016.8 |
| 20260507161044 | 12 | 0 | 1.6 | 9.7 | 0.00 | 0.13 | 0.08 | 71 | 1016.8 |
| 20260507160545 | 12 | 0 | 0.0 | 3.2 | 0.00 | 0.13 | 0.08 | 65 | 1016.7 |
| 20260507160052 | 12 | 0 | 0.0 | 8.0 | 0.00 | 0.13 | 0.08 | 65 | 1016.7 |
| 20260507155543 | 12 | 0 | 1.6 | 16.1 | 0.00 | 0.15 | 0.08 | 68 | 1016.7 |
| 20260507155043 | 12 | 0 | 3.2 | 16.1 | 0.00 | 0.15 | 0.08 | 68 | 1016.7 |
| 20260507154553 | 12 | 18 | 0.0 | 16.1 | 0.00 | 0.15 | 0.08 | 68 | 1016.7 |
| 20260507154045 | 12 | 0 | 0.0 | 6.4 | 0.00 | 0.15 | 0.08 | 68 | 1016.7 |
| 20260507153546 | 12 | 0 | 0.0 | 11.3 | 0.00 | 0.15 | 0.08 | 69 | 1016.7 |
| 20260507153111 | 12 | 0 | 1.6 | 16.1 | 0.00 | 0.15 | 0.08 | 72 | 1016.6 |
| 20260507152544 | 12 | 0 | 0.0 | 16.1 | 0.00 | 0.15 | 0.08 | 70 | 1016.6 |
| 20260507152044 | 12 | 0 | 4.8 | 16.1 | 0.00 | 0.15 | 0.08 | 70 | 1016.6 |
| 20260507151559 | 12 | 0 | 1.6 | 14.5 | 0.00 | 0.15 | 0.08 | 72 | 1016.6 |
| 20260507151043 | 12 | 22 | 1.6 | 8.0 | 0.00 | 0.15 | 0.08 | 72 | 1016.5 |
| 20260507150545 | 12 | 0 | 0.0 | 8.0 | 0.00 | 0.15 | 0.08 | 71 | 1016.5 |
| 20260507150054 | 12 | 0 | 0.0 | 1.6 | 0.00 | 0.15 | 0.08 | 73 | 1016.6 |
| 20260507145543 | 12 | 0 | 0.0 | 12.9 | 0.00 | 0.20 | 0.08 | 72 | 1016.6 |
| 20260507145043 | 12 | 0 | 1.6 | 12.9 | 0.00 | 0.20 | 0.08 | 71 | 1016.6 |
| 20260507144552 | 12 | 0 | 0.0 | 12.9 | 0.00 | 0.20 | 0.08 | 72 | 1016.6 |
| 20260507144045 | 12 | 0 | 0.0 | 9.7 | 0.00 | 0.20 | 0.08 | 73 | 1016.6 |
| 20260507143544 | 12 | 0 | 0.0 | 9.7 | 0.00 | 0.20 | 0.08 | 71 | 1016.6 |
| 20260507143055 | 12 | 329 | 0.0 | 12.9 | 0.00 | 0.20 | 0.08 | 70 | 1016.5 |
| 20260507142544 | 12 | 0 | 0.0 | 12.9 | 0.00 | 0.20 | 0.08 | 73 | 1016.5 |
| 20260507142043 | 12 | 0 | 3.2 | 12.9 | 0.00 | 0.20 | 0.08 | 71 | 1016.5 |
| 20260507141549 | 13 | 0 | 0.0 | 12.9 | 0.00 | 0.20 | 0.08 | 69 | 1016.6 |
| 20260507141044 | 13 | 0 | 1.6 | 14.5 | 0.00 | 0.20 | 0.08 | 72 | 1016.7 |
| 20260507140544 | 12 | 0 | 0.0 | 14.5 | 0.00 | 0.20 | 0.08 | 73 | 1016.5 |
| 20260507140053 | 12 | 9 | 0.0 | 8.0 | 0.00 | 0.20 | 0.08 | 70 | 1016.7 |
| 20260507135547 | 12 | 0 | 1.6 | 8.0 | 0.00 | 0.30 | 0.08 | 69 | 1016.6 |
| 20260507135047 | 12 | 0 | 0.0 | 8.0 | 0.00 | 0.30 | 0.08 | 72 | 1016.6 |
| 20260507134553 | 12 | 0 | 0.0 | 11.3 | 0.00 | 0.30 | 0.08 | 72 | 1016.7 |
| 20260507134043 | 13 | 0 | 1.6 | 11.3 | 0.00 | 0.30 | 0.08 | 74 | 1016.7 |
| 20260507133545 | 12 | 0 | 0.0 | 12.9 | 0.00 | 0.30 | 0.08 | 73 | 1016.6 |
| 20260507133056 | 12 | 313 | 0.0 | 12.9 | 0.00 | 0.30 | 0.08 | 75 | 1016.5 |
| 20260507132545 | 12 | 0 | 0.0 | 9.7 | 0.00 | 0.30 | 0.08 | 76 | 1016.5 |
| 20260507132044 | 12 | 0 | 0.0 | 12.9 | 0.00 | 0.30 | 0.08 | 78 | 1016.4 |
| 20260507131551 | 12 | 0 | 3.2 | 12.9 | 0.00 | 0.30 | 0.08 | 77 | 1016.5 |
| 20260507131046 | 12 | 0 | 0.0 | 12.9 | 0.00 | 0.30 | 0.08 | 78 | 1016.4 |
| 20260507130544 | 12 | 349 | 0.0 | 14.5 | 0.00 | 0.30 | 0.08 | 76 | 1016.4 |
| 20260507130100 | 12 | 0 | 3.2 | 14.5 | 0.00 | 0.30 | 0.08 | 76 | 1016.4 |
| 20260507125543 | 12 | 0 | 1.6 | 9.7 | 0.00 | 0.36 | 0.08 | 71 | 1016.3 |
| 20260507125043 | 12 | 0 | 0.0 | 0.0 | 0.00 | 0.36 | 0.08 | 74 | 1016.4 |
| 20260507124618 | 12 | 0 | 0.0 | 12.9 | 0.00 | 0.36 | 0.08 | 73 | 1016.3 |
| 20260507124046 | 12 | 0 | 0.0 | 12.9 | 0.00 | 0.36 | 0.08 | 74 | 1016.4 |
| 20260507123546 | 12 | 355 | 0.0 | 12.9 | 0.00 | 0.36 | 0.08 | 76 | 1016.4 |
| 20260507123105 | 12 | 0 | 3.2 | 9.7 | 0.00 | 0.36 | 0.08 | 77 | 1016.3 |
| 20260507122545 | 12 | 0 | 0.0 | 8.0 | 0.00 | 0.36 | 0.08 | 77 | 1016.2 |
| 20260507122045 | 12 | 0 | 0.0 | 8.0 | 0.00 | 0.36 | 0.08 | 77 | 1016.3 |
| 20260507121558 | 12 | 0 | 0.0 | 17.7 | 0.00 | 0.36 | 0.08 | 78 | 1016.2 |
| 20260507121042 | 12 | 0 | 1.6 | 17.7 | 0.00 | 0.36 | 0.08 | 76 | 1016.3 |
| 20260507120547 | 13 | 348 | 3.2 | 17.7 | 0.00 | 0.36 | 0.08 | 76 | 1016.2 |
| 20260507120055 | 12 | 0 | 0.0 | 9.7 | 0.00 | 0.36 | 0.08 | 79 | 1016.3 |
| 20260507115546 | 12 | 0 | 0.0 | 9.7 | 0.00 | 0.41 | 0.08 | 77 | 1016.3 |
| 20260507115045 | 11 | 0 | 0.0 | 6.4 | 0.00 | 0.41 | 0.08 | 80 | 1016.3 |
| 20260507114555 | 11 | 0 | 0.0 | 9.7 | 0.00 | 0.41 | 0.08 | 80 | 1016.4 |
| 20260507114044 | 11 | 0 | 1.6 | 9.7 | 0.00 | 0.41 | 0.08 | 82 | 1016.4 |
| 20260507113552 | 11 | 351 | 1.6 | 14.5 | 0.00 | 0.41 | 0.08 | 83 | 1016.4 |
| 20260507113051 | 11 | 0 | 4.8 | 14.5 | 0.00 | 0.41 | 0.08 | 83 | 1016.3 |
| 20260507112549 | 11 | 0 | 3.2 | 11.3 | 0.00 | 0.41 | 0.08 | 81 | 1016.2 |
| 20260507112042 | 11 | 0 | 0.0 | 9.7 | 0.00 | 0.41 | 0.08 | 81 | 1016.2 |
| 20260507111551 | 11 | 329 | 1.6 | 9.7 | 0.00 | 0.41 | 0.08 | 80 | 1016.2 |
| 20260507111042 | 11 | 0 | 0.0 | 6.4 | 0.00 | 0.41 | 0.08 | 81 | 1016.2 |
| 20260507110542 | 11 | 0 | 0.0 | 8.0 | 0.00 | 0.41 | 0.08 | 81 | 1016.2 |
| 20260507110051 | 11 | 0 | 1.6 | 8.0 | 0.00 | 0.41 | 0.08 | 78 | 1016.2 |
| 20260507105541 | 12 | 0 | 0.0 | 1.6 | 0.00 | 0.46 | 0.08 | 79 | 1016.2 |
| 20260507105049 | 12 | 0 | 0.0 | 1.6 | 0.00 | 0.46 | 0.08 | 80 | 1016.2 |
| 20260507104555 | 12 | 0 | 0.0 | 3.2 | 0.00 | 0.46 | 0.08 | 82 | 1016.2 |
| 20260507104041 | 12 | 0 | 0.0 | 3.2 | 0.00 | 0.46 | 0.08 | 80 | 1016.1 |
| 20260507103544 | 11 | 0 | 0.0 | 3.2 | 0.00 | 0.46 | 0.08 | 83 | 1016.1 |
| 20260507103052 | 11 | 339 | 0.0 | 0.0 | 0.00 | 0.46 | 0.08 | 85 | 1016.1 |
| 20260507102542 | 10 | 0 | 0.0 | 0.0 | 0.00 | 0.46 | 0.08 | 84 | 1016.0 |
| 20260507102043 | 10 | 0 | 0.0 | 0.0 | 0.00 | 0.46 | 0.08 | 83 | 1016.0 |
| 20260507101558 | 10 | 0 | 0.0 | 0.0 | 0.00 | 0.46 | 0.08 | 83 | 1016.0 |
| 20260507101042 | 11 | 0 | 0.0 | 0.0 | 0.00 | 0.46 | 0.08 | 86 | 1015.9 |
| 20260507100542 | 10 | 0 | 0.0 | 0.0 | 0.00 | 0.46 | 0.08 | 85 | 1015.9 |
| 20260507100058 | 10 | 0 | 0.0 | 8.0 | 0.00 | 0.46 | 0.08 | 87 | 1015.9 |
| 20260507095542 | 10 | 0 | 0.0 | 8.0 | 0.00 | 0.51 | 0.08 | 92 | 1016.0 |
| 20260507095041 | 9 | 0 | 0.0 | 9.7 | 0.00 | 0.51 | 0.08 | 91 | 1015.9 |
| 20260507094553 | 9 | 5 | 1.6 | 9.7 | 0.00 | 0.51 | 0.08 | 91 | 1015.9 |
| 20260507094043 | 8 | 5 | 0.0 | 6.4 | 0.00 | 0.51 | 0.08 | 91 | 1015.8 |
| 20260507093546 | 8 | 0 | 0.0 | 8.0 | 0.00 | 0.51 | 0.08 | 91 | 1015.8 |
| 20260507093050 | 9 | 0 | 1.6 | 8.0 | 0.00 | 0.51 | 0.08 | 91 | 1015.9 |
| 20260507092546 | 9 | 0 | 0.0 | 8.0 | 0.00 | 0.51 | 0.08 | 92 | 1015.7 |
| 20260507092041 | 9 | 0 | 0.0 | 11.3 | 0.00 | 0.51 | 0.08 | 92 | 1015.7 |
| 20260507091550 | 9 | 5 | 0.0 | 11.3 | 0.00 | 0.51 | 0.08 | 94 | 1015.6 |
| 20260507091045 | 8 | 0 | 0.0 | 14.5 | 0.00 | 0.51 | 0.08 | 93 | 1015.6 |
| 20260507090544 | 9 | 0 | 0.0 | 14.5 | 0.00 | 0.51 | 0.08 | 94 | 1015.5 |
| 20260507090051 | 9 | 0 | 3.2 | 14.5 | 0.00 | 0.51 | 0.08 | 94 | 1015.5 |
| 20260507085542 | 9 | 344 | 0.0 | 9.7 | 0.00 | 0.53 | 0.08 | 94 | 1015.3 |
| 20260507085048 | 9 | 342 | 0.0 | 8.0 | 0.00 | 0.53 | 0.08 | 95 | 1015.4 |
| 20260507084551 | 9 | 0 | 0.0 | 8.0 | 0.00 | 0.53 | 0.08 | 96 | 1015.4 |
| 20260507084045 | 8 | 0 | 0.0 | 9.7 | 0.00 | 0.53 | 0.08 | 96 | 1015.3 |
| 20260507083544 | 8 | 0 | 0.0 | 9.7 | 0.00 | 0.53 | 0.08 | 96 | 1015.3 |
| 20260507083106 | 8 | 0 | 0.0 | 8.0 | 0.00 | 0.53 | 0.08 | 96 | 1015.3 |
| 20260507082541 | 8 | 0 | 0.0 | 6.4 | 0.00 | 0.53 | 0.08 | 96 | 1015.3 |
| 20260507082049 | 8 | 0 | 0.0 | 4.8 | 0.00 | 0.53 | 0.08 | 96 | 1015.3 |
| 20260507081558 | 8 | 0 | 0.0 | 4.8 | 0.00 | 0.53 | 0.08 | 96 | 1015.2 |
| 20260507081045 | 8 | 0 | 0.0 | 4.8 | 0.00 | 0.53 | 0.08 | 97 | 1015.2 |
| 20260507080542 | 8 | 0 | 0.0 | 1.6 | 0.00 | 0.53 | 0.08 | 97 | 1015.1 |
| 20260507080058 | 8 | 0 | 0.0 | 4.8 | 0.00 | 0.53 | 0.08 | 97 | 1015.1 |
| 20260507075547 | 8 | 0 | 0.0 | 4.8 | 0.00 | 0.56 | 0.08 | 97 | 1015.1 |
| 20260507075045 | 8 | 0 | 0.0 | 4.8 | 0.00 | 0.56 | 0.08 | 97 | 1015.0 |
| 20260507074558 | 8 | 0 | 0.0 | 4.8 | 0.00 | 0.56 | 0.08 | 97 | 1014.9 |
| 20260507074045 | 8 | 0 | 0.0 | 4.8 | 0.00 | 0.56 | 0.08 | 97 | 1014.9 |
| 20260507073542 | 7 | 0 | 0.0 | 1.6 | 0.00 | 0.56 | 0.08 | 97 | 1015.0 |
| 20260507073103 | 8 | 0 | 0.0 | 0.0 | 0.00 | 0.56 | 0.08 | 97 | 1014.8 |
| 20260507072545 | 8 | 0 | 0.0 | 0.0 | 0.00 | 0.56 | 0.08 | 97 | 1014.9 |
| 20260507072048 | 8 | 0 | 0.0 | 0.0 | 0.00 | 0.56 | 0.08 | 97 | 1014.8 |
| 20260507071556 | 8 | 0 | 0.0 | 0.0 | 0.00 | 0.56 | 0.08 | 97 | 1014.9 |
| 20260507071045 | 7 | 0 | 0.0 | 0.0 | 0.00 | 0.56 | 0.08 | 97 | 1014.7 |
| 20260507070545 | 7 | 0 | 0.0 | 0.0 | 0.00 | 0.56 | 0.08 | 97 | 1014.6 |
| 20260507070055 | 7 | 0 | 0.0 | 0.0 | 0.00 | 0.56 | 0.08 | 97 | 1014.5 |
| 20260507065545 | 7 | 0 | 0.0 | 0.0 | 0.00 | 0.56 | 0.08 | 97 | 1014.5 |
| 20260507065042 | 7 | 0 | 0.0 | 0.0 | 0.00 | 0.56 | 0.08 | 97 | 1014.5 |
| 20260507064557 | 7 | 0 | 0.0 | 0.0 | 0.00 | 0.56 | 0.08 | 97 | 1014.5 |
| 20260507064048 | 7 | 0 | 0.0 | 0.0 | 0.00 | 0.56 | 0.08 | 97 | 1014.4 |
| 20260507063543 | 7 | 0 | 0.0 | 0.0 | 0.00 | 0.56 | 0.08 | 97 | 1014.3 |
| 20260507063053 | 7 | 0 | 0.0 | 0.0 | 0.00 | 0.56 | 0.08 | 97 | 1014.3 |
| 20260507062545 | 7 | 0 | 0.0 | 0.0 | 0.00 | 0.56 | 0.08 | 97 | 1014.2 |
| 20260507062042 | 7 | 0 | 0.0 | 0.0 | 0.00 | 0.56 | 0.08 | 97 | 1014.2 |
| 20260507061559 | 7 | 0 | 0.0 | 0.0 | 0.00 | 0.56 | 0.08 | 97 | 1014.1 |
| 20260507061043 | 7 | 0 | 0.0 | 0.0 | 0.00 | 0.56 | 0.08 | 97 | 1014.0 |
| 20260507060544 | 7 | 0 | 0.0 | 0.0 | 0.00 | 0.56 | 0.08 | 97 | 1014.1 |
| 20260507060052 | 7 | 0 | 0.0 | 0.0 | 0.00 | 0.56 | 0.08 | 97 | 1014.0 |
| 20260507055542 | 7 | 0 | 0.0 | 0.0 | 0.00 | 0.61 | 0.08 | 97 | 1013.9 |
| 20260507055042 | 7 | 0 | 0.0 | 0.0 | 0.00 | 0.61 | 0.08 | 97 | 1014.0 |
| 20260507054551 | 7 | 0 | 0.0 | 0.0 | 0.00 | 0.61 | 0.08 | 97 | 1013.9 |
| 20260507054042 | 7 | 0 | 0.0 | 4.8 | 0.00 | 0.61 | 0.08 | 97 | 1013.8 |
| 20260507053542 | 7 | 0 | 0.0 | 4.8 | 0.00 | 0.61 | 0.08 | 97 | 1013.8 |
| 20260507053052 | 7 | 0 | 0.0 | 1.6 | 0.00 | 0.61 | 0.08 | 97 | 1013.7 |
| 20260507052542 | 7 | 0 | 0.0 | 0.0 | 0.00 | 0.61 | 0.08 | 97 | 1013.7 |
| 20260507052045 | 7 | 0 | 0.0 | 0.0 | 0.00 | 0.61 | 0.08 | 97 | 1013.7 |
| 20260507051558 | 7 | 0 | 0.0 | 0.0 | 0.00 | 0.61 | 0.08 | 97 | 1013.5 |
| 20260507051042 | 7 | 0 | 0.0 | 0.0 | 0.00 | 0.61 | 0.08 | 97 | 1013.5 |
| 20260507050546 | 7 | 0 | 0.0 | 0.0 | 0.00 | 0.61 | 0.08 | 97 | 1013.4 |
| 20260507050057 | 7 | 0 | 0.0 | 0.0 | 0.00 | 0.61 | 0.08 | 97 | 1013.3 |
| 20260507045542 | 7 | 0 | 0.0 | 0.0 | 0.00 | 0.64 | 0.08 | 97 | 1013.3 |
| 20260507045043 | 7 | 0 | 0.0 | 0.0 | 0.00 | 0.64 | 0.08 | 97 | 1013.3 |
| 20260507044609 | 7 | 0 | 0.0 | 0.0 | 0.00 | 0.64 | 0.08 | 97 | 1013.2 |
| 20260507044047 | 7 | 0 | 0.0 | 0.0 | 0.00 | 0.64 | 0.08 | 97 | 1013.1 |
| 20260507043547 | 7 | 0 | 0.0 | 0.0 | 0.00 | 0.64 | 0.08 | 97 | 1013.0 |
| 20260507043052 | 7 | 0 | 0.0 | 0.0 | 0.00 | 0.64 | 0.08 | 97 | 1013.0 |
| 20260507042547 | 7 | 0 | 0.0 | 1.6 | 0.00 | 0.64 | 0.08 | 97 | 1012.9 |
| 20260507042047 | 7 | 0 | 0.0 | 1.6 | 0.00 | 0.64 | 0.08 | 97 | 1012.9 |
| 20260507041551 | 7 | 0 | 0.0 | 0.0 | 0.00 | 0.64 | 0.08 | 97 | 1012.9 |
| 20260507041050 | 7 | 0 | 0.0 | 0.0 | 0.00 | 0.64 | 0.08 | 97 | 1013.0 |
| 20260507040547 | 7 | 0 | 0.0 | 0.0 | 0.00 | 0.64 | 0.08 | 97 | 1013.0 |
| 20260507040058 | 7 | 0 | 0.0 | 0.0 | 0.00 | 0.64 | 0.08 | 97 | 1012.8 |
| 20260507035547 | 7 | 0 | 0.0 | 0.0 | 0.00 | 0.66 | 0.08 | 97 | 1012.8 |
| 20260507035047 | 7 | 0 | 0.0 | 0.0 | 0.00 | 0.66 | 0.08 | 97 | 1012.8 |
| 20260507034549 | 7 | 0 | 0.0 | 0.0 | 0.00 | 0.66 | 0.08 | 97 | 1012.7 |
| 20260507034047 | 7 | 0 | 0.0 | 0.0 | 0.00 | 0.66 | 0.08 | 97 | 1012.8 |
| 20260507033547 | 7 | 0 | 0.0 | 0.0 | 0.00 | 0.66 | 0.08 | 97 | 1012.8 |
| 20260507033055 | 7 | 0 | 0.0 | 0.0 | 0.00 | 0.66 | 0.08 | 97 | 1012.7 |
| 20260507032547 | 7 | 0 | 0.0 | 0.0 | 0.00 | 0.66 | 0.08 | 97 | 1012.7 |
| 20260507032050 | 7 | 0 | 0.0 | 0.0 | 0.00 | 0.66 | 0.08 | 97 | 1012.7 |
| 20260507031557 | 7 | 0 | 0.0 | 0.0 | 0.00 | 0.66 | 0.08 | 97 | 1012.7 |
| 20260507031049 | 7 | 0 | 0.0 | 0.0 | 0.00 | 0.66 | 0.08 | 97 | 1012.6 |
| 20260507030546 | 7 | 0 | 0.0 | 0.0 | 0.00 | 0.66 | 0.08 | 97 | 1012.5 |
| 20260507030054 | 7 | 0 | 0.0 | 0.0 | 0.00 | 0.66 | 0.08 | 97 | 1012.5 |
| 20260507025549 | 7 | 0 | 0.0 | 0.0 | 0.00 | 0.74 | 0.08 | 97 | 1012.5 |
| 20260507025050 | 7 | 0 | 0.0 | 0.0 | 0.00 | 0.74 | 0.08 | 97 | 1012.4 |
| 20260507024614 | 7 | 0 | 0.0 | 0.0 | 0.00 | 0.74 | 0.08 | 97 | 1012.5 |
| 20260507024047 | 7 | 0 | 0.0 | 0.0 | 0.00 | 0.74 | 0.08 | 97 | 1012.5 |
| 20260507023552 | 7 | 0 | 0.0 | 0.0 | 0.00 | 0.74 | 0.08 | 97 | 1012.5 |
| 20260507023055 | 7 | 0 | 0.0 | 0.0 | 0.00 | 0.74 | 0.08 | 97 | 1012.4 |
| 20260507022549 | 7 | 0 | 0.0 | 0.0 | 0.00 | 0.74 | 0.08 | 97 | 1012.4 |
| 20260507022043 | 7 | 0 | 0.0 | 0.0 | 0.00 | 0.74 | 0.08 | 97 | 1012.3 |
| 20260507021601 | 7 | 0 | 0.0 | 0.0 | 0.00 | 0.74 | 0.08 | 97 | 1012.3 |
| 20260507021046 | 7 | 0 | 0.0 | 0.0 | 0.00 | 0.74 | 0.08 | 97 | 1012.3 |
| 20260507020547 | 7 | 0 | 0.0 | 0.0 | 0.00 | 0.74 | 0.08 | 97 | 1012.4 |
| 20260507020107 | 7 | 0 | 0.0 | 0.0 | 0.03 | 0.74 | 0.08 | 97 | 1012.2 |
| 20260507015546 | 7 | 0 | 0.0 | 0.0 | 0.00 | 0.79 | 0.05 | 97 | 1012.3 |
| 20260507015047 | 7 | 0 | 0.0 | 0.0 | 0.00 | 0.79 | 0.05 | 97 | 1012.2 |
| 20260507014607 | 7 | 0 | 0.0 | 0.0 | 0.00 | 0.79 | 0.05 | 97 | 1012.2 |
| 20260507014047 | 7 | 0 | 0.0 | 0.0 | 0.00 | 0.79 | 0.05 | 97 | 1012.1 |
| 20260507013549 | 7 | 0 | 0.0 | 0.0 | 0.00 | 0.79 | 0.05 | 97 | 1012.1 |
| 20260507013054 | 7 | 0 | 0.0 | 0.0 | 0.00 | 0.79 | 0.05 | 97 | 1012.2 |
| 20260507012546 | 7 | 0 | 0.0 | 0.0 | 0.03 | 0.79 | 0.05 | 97 | 1012.2 |
| 20260507012046 | 7 | 0 | 0.0 | 0.0 | 0.03 | 0.79 | 0.05 | 97 | 1012.1 |
| 20260507011549 | 7 | 0 | 0.0 | 0.0 | 0.03 | 0.79 | 0.05 | 97 | 1012.1 |
| 20260507011045 | 7 | 0 | 0.0 | 6.4 | 0.03 | 0.79 | 0.05 | 97 | 1012.1 |
| 20260507010546 | 7 | 0 | 0.0 | 6.4 | 0.03 | 0.79 | 0.05 | 97 | 1012.1 |
| 20260507010054 | 7 | 0 | 0.0 | 1.6 | 0.03 | 0.76 | 0.03 | 97 | 1012.1 |
| 20260507005546 | 7 | 0 | 0.0 | 1.6 | 0.03 | 0.94 | 0.03 | 97 | 1012.1 |
| 20260507005043 | 7 | 0 | 0.0 | 8.0 | 0.03 | 0.94 | 0.03 | 97 | 1012.0 |
| 20260507004557 | 7 | 0 | 0.0 | 8.0 | 0.03 | 0.94 | 0.03 | 97 | 1011.9 |
| 20260507004046 | 7 | 0 | 0.0 | 6.4 | 0.03 | 0.94 | 0.03 | 97 | 1012.0 |
| 20260507003542 | 7 | 0 | 0.0 | 0.0 | 0.03 | 0.94 | 0.03 | 97 | 1011.8 |
| 20260507003056 | 7 | 0 | 0.0 | 8.0 | 0.03 | 0.94 | 0.03 | 97 | 1011.9 |
| 20260507002547 | 7 | 0 | 0.0 | 8.0 | 0.00 | 0.91 | 0.00 | 97 | 1011.9 |
| 20260507002045 | 7 | 0 | 0.0 | 4.8 | 0.00 | 0.91 | 0.00 | 97 | 1011.9 |
| 20260507001558 | 7 | 0 | 0.0 | 4.8 | 0.00 | 0.91 | 0.00 | 97 | 1011.9 |
| 20260507001046 | 7 | 0 | 0.0 | 9.7 | 0.00 | 0.91 | 0.00 | 97 | 1011.9 |
| 20260507000547 | 7 | 0 | 0.0 | 9.7 | 0.00 | 0.91 | 0.00 | 97 | 1011.9 |
| 20260507000053 | 7 | 0 | 0.0 | 9.7 | 0.00 | 0.89 | 0.00 | 97 | 1012.0 |
| 20260506235546 | 7 | 0 | 0.0 | 0.0 | 0.00 | 1.02 | 0.00 | 97 | 1011.8 |
| 20260506235048 | 7 | 0 | 0.0 | 1.6 | 0.00 | 1.02 | 0.00 | 96 | 1011.8 |
| 20260506234601 | 7 | 0 | 0.0 | 3.2 | 0.00 | 1.02 | 0.00 | 97 | 1011.9 |
| 20260506234046 | 7 | 0 | 0.0 | 3.2 | 0.00 | 1.02 | 0.00 | 97 | 1011.7 |
| 20260506233549 | 7 | 0 | 0.0 | 3.2 | 0.00 | 1.02 | 0.00 | 97 | 1011.8 |
| 20260506233058 | 7 | 0 | 0.0 | 3.2 | 0.00 | 1.02 | 0.00 | 97 | 1011.8 |
| 20260506232546 | 7 | 0 | 0.0 | 3.2 | 0.00 | 1.02 | 0.00 | 97 | 1011.8 |
| 20260506232048 | 7 | 0 | 0.0 | 1.6 | 0.00 | 1.02 | 0.00 | 97 | 1011.7 |
| 20260506231559 | 7 | 0 | 0.0 | 1.6 | 0.00 | 1.02 | 0.00 | 97 | 1011.7 |
| 20260506231048 | 7 | 0 | 0.0 | 1.6 | 0.00 | 1.02 | 0.00 | 97 | 1011.8 |
| 20260506230546 | 7 | 0 | 0.0 | 1.6 | 0.00 | 1.02 | 0.00 | 97 | 1011.6 |
| 20260506230058 | 7 | 0 | 0.0 | 0.0 | 0.00 | 1.02 | 0.00 | 97 | 1011.6 |
| 20260506225547 | 7 | 0 | 0.0 | 3.2 | 0.00 | 1.22 | 0.00 | 97 | 1011.6 |
| 20260506225046 | 7 | 0 | 0.0 | 3.2 | 0.00 | 1.22 | 0.00 | 97 | 1011.6 |
| 20260506224556 | 7 | 0 | 0.0 | 0.0 | 0.00 | 1.22 | 0.00 | 97 | 1011.6 |
| 20260506224045 | 7 | 0 | 0.0 | 0.0 | 0.00 | 1.22 | 0.00 | 97 | 1011.5 |